Shirley, NY

5:45 PM EDT on May 22, 2018 (GMT -0400)
Brookhaven

Weather History for KHWV - February, 2013

Change the Weather History Date:

Friday, February 1, 2013

  Actual Average (KISP) Record (KISP)
Temperature  
Mean Temperature 29 °F -  
Max Temperature 32 °F 37 °F 64 °F (2016)
Min Temperature 25 °F 22 °F 4 °F (1971)
Degree Days  
Heating Degree Days 36    
Moisture  
Dew Point 7 °F    
Average Humidity 39    
Maximum Humidity 47    
Minimum Humidity 30    
Precipitation  
Precipitation 0.00 in - - ()
Sea Level Pressure  
Sea Level Pressure 29.94 in    
Wind  
Wind Speed 14 mph (WNW)    
Max Wind Speed 18 mph    
Max Gust Speed 28 mph    
Visibility 10 miles    
Events      
Averages and records for this station are not official NWS values.
T = Trace of Precipitation, MM = Missing Value Source: NWS Daily Summary

Daily Weather History Graph

Daily Weather History Graph

Search for Another Location

Airport or City:

Astronomy

Feb. 01, 2013 Rise Set
Actual Time 7:01 AM EST 5:09 PM EST
Civil Twilight 6:32 AM EST 5:38 PM EST
Nautical Twilight 5:59 AM EST 6:11 PM EST
Astronomical Twilight 5:27 AM EST 6:43 PM EST
Moon 11:16 PM EST (2/1) 9:30 AM EST (2/1)
Length of Visible Light 11h 05m
Length of Day
10h 07m
Waning Gibbous, 70% of the Moon is Illuminated
Feb 1
Waning Gibbous
Feb 3
Last Quarter
Feb 10
New
Feb 17
First Quarter
Feb 25
Full

Hourly Weather History & Observations

Time (EST) Temp. Windchill Dew Point Humidity Pressure Visibility Wind Dir Wind Speed Gust Speed Precip Events Conditions
1:56 AM 30.0 °F 20.5 °F 8.1 °F 40% 29.81 in 10.0 mi West 11.5 mph 21.9 mph N/A   Clear
2:56 AM 28.9 °F 18.2 °F 10.0 °F 45% 29.81 in 10.0 mi WSW 13.8 mph 23.0 mph N/A   Clear
3:56 AM 28.9 °F 18.6 °F 10.9 °F 47% 29.81 in 10.0 mi WSW 12.7 mph 21.9 mph N/A   Clear
4:56 AM 28.9 °F 19.8 °F 10.9 °F 47% 29.81 in 10.0 mi WSW 10.4 mph - N/A   Clear
5:56 AM 30.0 °F 19.1 °F 10.9 °F 45% 29.82 in 10.0 mi West 15.0 mph 19.6 mph N/A   Clear
6:56 AM 30.0 °F 19.1 °F 10.9 °F 45% 29.85 in 10.0 mi West 15.0 mph 20.7 mph N/A   Clear
7:56 AM 30.9 °F 21.7 °F 10.9 °F 43% 29.86 in 10.0 mi West 11.5 mph 19.6 mph N/A   Partly Cloudy
8:56 AM 30.9 °F 20.2 °F 10.0 °F 42% 29.86 in 10.0 mi West 15.0 mph 21.9 mph N/A   Overcast
9:56 AM 30.9 °F 21.2 °F 9.0 °F 40% 29.86 in 10.0 mi West 12.7 mph - N/A   Overcast
10:56 AM 30.9 °F 19.1 °F 10.9 °F 43% 29.86 in 10.0 mi WNW 18.4 mph 24.2 mph N/A   Overcast
11:56 AM 30.9 °F 21.2 °F 9.0 °F 40% 29.83 in 10.0 mi NW 12.7 mph 27.6 mph N/A   Overcast
12:56 PM 32.0 °F 20.8 °F 8.1 °F 37% 29.84 in 10.0 mi NW 17.3 mph 25.3 mph N/A   Overcast
1:56 PM 30.9 °F 19.4 °F 8.1 °F 38% 29.86 in 10.0 mi WNW 17.3 mph 25.3 mph N/A   Overcast
2:56 PM 30.9 °F 20.7 °F 7.0 °F 37% 29.89 in 10.0 mi NW 13.8 mph 25.3 mph N/A   Overcast
3:56 PM 30.9 °F 19.4 °F 5.0 °F 33% 29.93 in 10.0 mi NW 17.3 mph 25.3 mph N/A   Overcast
4:56 PM 30.9 °F 20.2 °F 3.9 °F 32% 29.98 in 10.0 mi NW 15.0 mph 25.3 mph N/A   Overcast
5:56 PM 30.0 °F 19.1 °F 3.0 °F 32% 30.03 in 10.0 mi NW 15.0 mph 25.3 mph N/A   Mostly Cloudy
6:56 PM 28.0 °F 15.3 °F 1.0 °F 31% 30.08 in 10.0 mi WNW 18.4 mph 27.6 mph N/A   Clear
7:56 PM 28.0 °F 15.7 °F -0.0 °F 30% 30.12 in 10.0 mi NW 17.3 mph 25.3 mph N/A   Clear
8:56 PM 27.0 °F 16.7 °F 1.9 °F 34% 30.14 in 10.0 mi WNW 11.5 mph - N/A   Clear
9:56 PM 26.1 °F 13.6 °F 3.0 °F 37% 30.17 in 10.0 mi WNW 16.1 mph 24.2 mph N/A   Clear
10:56 PM 26.1 °F 14.5 °F 5.0 °F 41% 30.19 in 10.0 mi WNW 13.8 mph 20.7 mph N/A   Clear
11:56 PM 25.0 °F 13.6 °F 7.0 °F 46% 30.21 in 10.0 mi West 12.7 mph 18.4 mph N/A   Partly Cloudy